Location: Cartwright
(53.7070°N, 57.0233°W)
Time: 13:55:58
(UTC-03:-30)

Envisat - Visible Passes

Search period start: 02 December 2020 00:00
Search period end: 12 December 2020 00:00
Orbit: 764 x 766 km, 98.1° (Epoch: 01 December)

Date Brightness Start Highest point End Pass type
(mag) Time Alt. Az. Time Alt. Az. Time Alt. Az.
02 Dec 6.3 04:34:57 10° ENE 04:36:14 11° E 04:37:31 10° E visible
02 Dec 3.5 06:11:16 10° NNE 06:16:20 62° ESE 06:21:22 10° S visible
02 Dec 3.8 17:32:26 10° S 17:37:25 56° W 17:42:26 10° NNW visible
03 Dec 4.8 05:34:43 10° NNE 05:39:18 33° E 05:43:51 10° SSE visible
03 Dec 3.3 07:13:38 10° N 07:18:30 46° WNW 07:23:20 10° SW visible
03 Dec 3.0 16:55:28 10° SSE 17:00:33 79° ENE 17:05:40 10° NNW visible
03 Dec 5.7 18:36:36 10° SW 18:40:11 19° W 18:43:48 10° NW visible
04 Dec 5.8 04:58:41 10° NE 05:02:05 18° E 05:05:27 10° SE visible
04 Dec 3.0 06:36:40 10° NNE 06:41:47 85° WNW 06:46:53 10° SSW visible
04 Dec 4.7 17:58:20 10° SSW 18:03:00 35° W 18:07:41 10° NNW visible
05 Dec 3.9 05:59:55 10° NNE 06:04:54 51° E 06:09:50 10° S visible
05 Dec 3.4 17:20:56 10° S 17:25:59 68° WSW 17:31:05 10° NNW visible
05 Dec 6.2 19:04:05 10° WSW 19:06:01 12° W 19:07:57 10° WNW visible
06 Dec 5.1 05:23:29 10° NE 05:27:49 27° E 05:32:07 10° SSE visible
06 Dec 3.1 07:02:10 10° N 07:07:09 56° WNW 07:12:07 10° SW visible
06 Dec 3.0 16:44:09 10° SSE 16:49:10 66° ENE 16:54:14 10° N visible
06 Dec 5.5 18:24:39 10° SW 18:28:40 23° W 18:32:42 10° NW visible
07 Dec 6.0 04:47:45 10° NE 04:50:31 14° E 04:53:16 10° ESE visible
07 Dec 3.1 06:25:16 10° NNE 06:30:24 80° ESE 06:35:29 10° SSW visible
07 Dec 4.3 17:46:42 10° S 17:51:32 43° W 17:56:23 10° NNW visible
08 Dec 4.3 05:48:35 10° NNE 05:53:27 42° E 05:58:16 10° SSE visible
08 Dec 3.5 07:27:47 10° N 07:32:26 37° WNW 07:37:04 10° SW visible
08 Dec 3.1 17:09:29 10° SSE 17:14:34 82° WSW 17:19:42 10° NNW visible
08 Dec 6.0 18:51:37 10° WSW 18:54:26 15° W 18:57:16 10° NW visible
09 Dec 5.4 05:12:18 10° NE 05:16:18 23° E 05:20:16 10° SE visible
09 Dec 2.9 06:50:44 10° N 06:55:48 67° WNW 07:00:50 10° SSW visible
09 Dec 3.1 16:32:53 10° SE 16:37:49 55° ENE 16:42:47 10° N visible
09 Dec 5.1 18:12:49 10° SSW 18:17:09 28° W 18:21:30 10° NNW visible
10 Dec 6.2 04:37:07 10° ENE 04:38:56 12° E 04:40:45 10° ESE visible
10 Dec 3.4 06:13:53 10° NNE 06:18:58 67° ESE 06:24:02 10° S visible
10 Dec 3.9 17:35:07 10° S 17:40:04 52° W 17:45:03 10° NNW visible
11 Dec 4.6 05:37:18 10° NNE 05:41:58 35° E 05:46:36 10° SSE visible
11 Dec 3.3 07:16:18 10° N 07:21:06 44° WNW 07:25:54 10° SW visible
11 Dec 3.0 16:58:05 10° SSE 17:03:10 84° ENE 17:08:18 10° NNW visible
11 Dec 5.8 18:39:28 10° SW 18:42:53 18° W 18:46:19 10° NW visible
